Volver al catálogo

JAMX01

ActivoRadioaficionadoSSO
NORAD 98248·PAYLOAD·🇨🇳 China
Este nombre de satélite aún no ha sido confirmado por fuentes oficiales.

Lanzado Aug 25, 2026 desde Taiyuan Satellite Launch Center

Loading…

Próximos Pases (próximas 24 horas)

TLE

ActualizadoSource: SatNOGS

Época: Sep 13, 2026, 22:35 UTC

1 98248U 26195A   26256.94162229  .00003947  00000-0  25069-3 0  9998
2 98248  97.5389 330.4124 0013166 183.3336 176.7807 15.09363115  2984

Sigue JAMX01 en tiempo real con AllMySat

Download on the App Store